{"data":{"norad_id":65850,"epoch":"2026-05-25T03:33:57.589344Z","epoch_age_seconds":58331,"freshness":"FRESH","line1":"1 65850U 25221AD  26145.14858321  .00044458  00000+0  15028-2 0  9998","line2":"2 65850  53.1574  93.6208 0000959  80.8016 279.3093 15.30230842 37781","mean_motion":15.30230842,"eccentricity":9.59e-5,"inclination_deg":53.1574,"raan_deg":93.6208,"arg_perigee_deg":80.8016,"mean_anomaly_deg":279.3093,"bstar":0.0015028,"rev_number":3778,"period_min":94.103449001063,"perigee_km":474.46575468105,"apogee_km":475.78020994565,"semimajor_km":6853.2599823133,"source":"CELESTRAK","updated_at":"2026-05-25T13:38:20.947888Z"}}